Location: Mount Cross
(36.6390°N, 79.4878°W)
Time: 18:59:08
(UTC+00:00)

Courier 1B Rocket - Pass Details

Date: 26 March 2023
Orbit: 920 x 1202 km, 28.2° (Epoch: 05 June)

Event Time Altitude Azimuth Distance (km) Brightness Sun altitude
Rises 01:01:56 0° 235° (SW) 3,875 8.7 -18.2°
Reaches altitude 10° 01:05:04 10° 226° (SW) 2,872 7.8 -18.8°
Maximum altitude 01:11:04 31° 166° (SSE) 1,681 6.0 -19.9°
Enters shadow 01:12:34 28° 143° (SE) 1,762 5.9 -20.2°
Drops below altitude 10° 01:16:43 10° 106° (ESE) 2,705 - -21.0°
Sets 01:19:35 0° 97° (E) 3,618 - -21.5°
